Wind_Speed
15 15 16 17 18 18 19 19 20 19 19 20 20 20 18 21 21 11 3 0 2 3 6 3 3 4 3 3 2 1 5 8 4 4 3 6 8 5 6 7 3 4 3 3 16
15 17 17 18 19 20 21 20 20 20 19 19 19 19 18 21 15 3 5 2 6 6 3 3 2 3 2 2 2 2 3 5 3 3 8 13 6 12 4 6 6 6 3 10 19
16 18 18 20 21 21 22 22 21 20 19 18 16 17 17 15 3 3 10 3 9 5 2 3 4 2 2 1 1 3 4 2 7 11 11 7 8 3 4 6 10 7 8 12 17
17 19 20 22 23 23 23 23 21 20 19 16 14 15 15 5 3 3 7 7 6 3 3 5 3 2 2 2 2 3 5 5 6 4 5 6 5 6 8 12 7 8 8 15 16
17 20 22 23 25 25 24 23 22 19 17 14 11 11 5 2 3 3 1 4 4 3 2 3 2 2 2 1 1 3 4 4 10 12 10 8 12 10 14 13 11 4 11 15 17
18 21 23 25 26 27 25 25 21 20 17 11 7 5 2 1 1 5 4 2 1 2 2 2 2 1 3 1 2 2 9 12 8 6 5 6 8 2 10 11 12 10 14 15 18
20 22 24 26 27 27 27 23 22 15 10 4 1 1 2 3 2 2 1 2 1 0 1 1 2 0 1 1 2 3 8 7 1 3 2 2 1 3 13 9 8 12 11 13 17
20 23 25 27 29 28 24 22 14 8 6 3 3 2 4 2 4 8 8 4 5 6 5 4 3 3 1 1 2 2 1 3 5 10 2 4 8 5 10 5 8 10 8 11 16
20 24 25 28 29 27 23 18 5 4 5 3 2 1 1 7 1 5 2 2 1 4 3 4 3 3 1 2 2 5 3 5 7 4 6 5 9 15 10 5 7 9 10 12 13
21 23 26 28 29 20 21 4 3 2 4 2 1 2 1 4 5 7 1 2 2 4 3 2 3 1 2 4 3 4 3 4 5 5 6 7 12 12 9 8 7 8 9 13 15
21 23 26 27 24 17 19 3 5 1 6 2 5 4 4 10 2 0 2 4 2 6 2 3 1 4 4 3 2 3 4 5 5 3 4 6 8 11 11 11 9 9 8 10 14
20 23 25 27 15 12 18 7 3 5 6 3 6 6 8 3 3 2 3 2 3 2 0 1 2 1 4 3 4 4 5 3 7 3 3 8 6 8 12 11 8 7 8 11 15
19 22 24 26 8 9 11 7 14 5 2 5 3 3 2 6 2 2 2 2 2 2 1 0 2 3 2 6 1 2 3 4 5 6 2 10 4 10 12 8 12 15 13 12 13
17 20 23 24 4 13 1 14 15 10 2 4 1 2 3 1 1 2 1 2 2 2 2 2 2 3 5 2 1 2 3 3 5 5 3 7 3 7 10 11 13 16 18 18 16
15 18 20 17 9 6 7 17 3 3 3 2 2 2 3 1 1 5 0 2 2 2 1 1 3 5 4 1 3 3 2 3 2 1 1 6 1 7 7 16 20 21 20 19 18
14 16 19 12 15 5 12 15 2 2 3 3 3 2 1 2 2 2 1 4 1 1 1 4 2 3 2 3 3 2 2 3 2 1 0 3 3 10 10 14 16 18 21 21 22
14 16 18 15 4 11 12 2 1 2 2 4 2 1 4 5 3 2 2 3 3 3 6 4 1 3 2 3 1 1 3 4 3 3 4 2 4 13 11 15 12 16 17 19 20
15 17 14 11 13 11 5 1 2 1 2 2 3 4 4 7 4 4 3 4 6 2 1 3 3 9 10 3 2 5 2 2 3 4 6 1 1 5 10 12 13 15 17 21 22
16 11 5 4 6 2 1 2 2 1 2 3 2 3 3 2 2 2 6 4 3 4 2 2 2 3 6 6 3 2 4 2 3 1 3 3 1 6 17 21 21 19 20 21 21
14 8 3 4 5 1 1 1 1 2 3 1 3 2 2 6 2 3 4 5 5 5 2 1 2 1 3 2 10 5 4 2 1 3 7 3 3 4 17 17 17 20 20 19 20
5 0 8 3 4 2 2 3 3 4 3 2 3 3 4 3 3 3 4 2 6 6 3 2 1 1 2 6 4 0 1 5 1 2 3 5 1 6 7 10 12 14 15 17 19
1 1 3 3 1 1 2 3 2 3 2 4 4 4 3 4 4 2 3 3 11 3 2 4 0 1 3 5 1 3 3 2 2 1 1 2 2 7 6 9 10 12 13 15 17
1 1 3 3 2 2 2 2 2 2 4 2 3 3 3 3 2 2 2 3 10 6 3 4 2 2 3 3 2 2 2 3 2 1 8 6 2 8 9 11 12 13 14 14 16
2 3 1 2 1 2 2 2 3 1 1 4 4 3 3 3 6 2 2 5 7 5 5 2 2 2 6 4 3 5 8 1 2 4 4 8 13 8 10 9 10 11 12 14 15
1 2 1 4 4 3 1 0 3 3 2 4 4 4 4 3 2 2 1 2 2 7 3 2 2 2 4 5 5 9 12 8 9 10 8 13 7 4 1 5 7 6 8 12 15
3 3 1 2 1 6 0 3 4 4 1 2 7 3 3 3 1 3 1 2 1 3 4 3 1 2 9 5 3 9 13 13 14 11 10 8 10 3 0 4 5 8 10 12 14
3 0 1 1 3 5 4 4 5 7 3 3 9 5 5 4 3 2 1 1 2 2 2 2 2 1 4 5 7 10 3 4 2 2 3 5 3 6 3 5 5 7 9 11 11
Wind_Direction
18 7 2 359 360 356 351 352 347 341 340 343 340 337 334 329 328 323 261 140 119 143 179 177 85 50 83 103 88 163 212 245 234 217 299 309 319 317 295 277 233 188 236 116 142
12 2 359 357 356 355 349 348 345 337 337 339 339 338 337 332 332 302 344 255 147 131 112 106 100 63 99 95 100 191 230 240 211 235 285 300 277 310 289 278 252 210 151 147 153
5 358 355 355 354 352 346 343 340 334 332 334 336 337 337 337 303 28 3 147 177 153 89 108 101 74 99 77 133 147 253 246 262 248 268 271 279 230 268 266 254 261 218 169 165
357 355 352 352 350 347 342 338 337 330 326 327 332 336 335 357 122 5 36 92 136 167 142 111 115 110 105 119 144 265 256 241 276 261 270 276 296 252 233 251 260 256 192 171 178
354 351 351 348 346 344 340 336 333 325 321 317 323 335 350 341 256 331 64 103 100 119 112 128 108 117 106 112 182 221 278 233 267 289 275 272 266 277 272 273 272 246 186 193 191
352 348 348 345 344 342 338 335 332 326 317 304 303 331 57 313 236 27 135 129 102 84 111 150 96 136 105 160 245 258 273 280 291 293 262 283 313 231 312 322 256 230 212 203 196
351 346 344 344 342 342 337 335 331 332 330 319 266 100 117 242 238 332 132 211 237 224 9 226 159 221 154 309 322 300 302 306 148 321 296 338 254 241 329 317 270 237 231 207 208
344 342 345 344 343 341 337 333 333 355 28 55 105 91 251 289 299 303 279 258 258 263 252 297 202 102 359 307 321 334 269 4 6 343 70 323 352 318 319 301 277 278 257 231 222
342 342 344 346 344 342 340 336 360 30 36 59 51 58 100 326 4 348 264 175 120 74 120 75 77 56 116 357 122 27 26 353 324 2 316 358 347 340 354 1 290 279 262 252 247
342 341 345 346 346 351 344 350 26 16 5 7 40 207 345 339 308 323 34 149 81 115 112 55 47 19 65 10 46 336 341 317 285 334 324 318 340 356 356 326 303 305 273 259 259
338 342 346 348 351 5 6 353 5 17 38 327 307 284 298 319 317 109 116 127 60 57 61 28 115 64 338 246 240 256 265 291 294 290 300 334 331 14 19 9 338 316 301 276 267
339 343 345 349 354 16 41 68 74 290 315 300 262 270 271 287 310 9 135 109 80 84 305 148 118 176 302 237 218 226 267 269 286 273 272 345 340 342 4 16 11 346 326 306 298
339 342 344 349 356 18 56 69 346 172 275 300 224 258 326 173 197 267 170 126 96 133 113 88 342 287 275 334 237 180 285 322 315 325 137 330 82 10 8 18 27 33 12 352 332
336 340 344 352 32 347 359 345 346 173 348 8 55 135 127 219 102 286 223 119 73 79 147 283 305 296 303 276 195 349 248 258 304 307 19 353 70 36 342 341 19 15 7 1 350
328 336 342 351 326 315 311 337 18 161 89 351 73 105 126 329 329 32 359 71 90 102 264 108 276 327 323 317 203 302 53 48 42 58 255 20 309 7 351 360 355 354 357 5 9
323 329 330 334 317 305 327 334 133 257 85 49 103 121 148 34 41 88 101 62 68 109 333 274 323 264 292 305 243 27 237 67 103 32 100 347 316 50 27 344 348 6 7 7 6
316 318 315 308 280 314 333 340 199 59 313 14 34 93 87 13 55 43 61 47 14 353 15 326 360 293 300 311 114 172 23 358 27 22 350 225 263 43 359 14 359 357 10 13 12
313 314 308 297 285 291 332 215 98 57 21 357 19 67 70 9 46 22 83 73 43 13 324 355 132 3 340 26 7 43 17 29 324 335 340 252 35 39 5 11 21 22 12 16 16
318 322 320 336 323 163 206 108 135 182 324 357 77 62 54 47 60 84 50 38 22 358 318 334 95 308 42 42 314 93 49 20 112 112 261 342 149 210 8 13 11 13 13 8 6
332 332 4 20 84 352 90 173 208 244 329 97 96 13 75 11 77 69 33 9 345 17 253 137 281 339 347 260 54 55 119 267 64 284 299 264 264 32 2 359 5 10 8 6 5
338 259 348 141 1 49 171 205 261 268 253 49 108 98 68 34 42 61 14 75 354 340 51 2 275 43 266 24 334 11 77 54 61 335 298 296 69 21 14 7 10 12 10 9 7
0 156 17 17 96 8 180 198 309 320 17 81 90 84 80 40 54 90 102 11 348 294 34 11 44 349 3 14 315 61 78 56 332 282 191 265 266 33 44 35 23 22 18 14 14
121 33 21 352 173 194 258 257 264 17 24 82 91 50 54 66 99 58 59 34 9 34 35 355 32 314 163 197 153 40 48 82 75 314 240 272 285 52 52 45 29 20 18 18 18
166 138 42 61 23 152 175 180 148 17 64 70 101 99 108 69 37 109 53 13 357 38 41 191 87 278 277 321 326 297 300 65 231 257 298 266 297 336 25 27 21 15 18 20 24
1 170 349 172 205 170 185 117 142 123 66 42 66 84 124 110 72 75 30 16 31 0 35 38 311 284 266 248 249 266 276 284 251 266 268 302 290 297 327 356 3 5 20 25 24
170 171 139 101 118 166 281 192 149 133 41 80 124 126 96 122 117 175 136 15 345 352 27 8 281 306 282 277 259 276 278 279 277 274 261 259 274 207 307 341 358 18 17 16 12
181 261 275 126 134 163 192 175 176 141 61 50 137 120 105 116 115 84 218 2 345 323 347 318 197 282 271 4 316 282 39 350 138 221 276 266 321 171 258 317 346 358 358 356 352
Height
841 841 839 836 833 830 827 823 820 818 814 811 808 805 801 797 794 791 791 790 789 790 791 792 793 793 794 795 797 799 808 812 812 810 795 782 785 771 764 766 764 762 765 766 770
841 841 839 835 832 828 825 822 819 816 813 810 807 804 800 796 792 791 790 789 790 790 791 792 792 793 795 797 799 800 811 807 798 794 791 783 787 777 773 768 763 762 765 768 770
842 841 838 833 830 826 823 820 817 814 811 808 805 803 799 795 794 790 788 786 789 791 791 792 793 793 797 798 800 805 806 798 790 788 785 785 781 775 773 771 759 756 755 766 769
842 839 836 832 828 824 821 818 814 811 808 806 804 801 798 796 805 791 790 790 790 791 791 792 793 795 801 802 800 806 797 796 787 783 784 784 776 773 767 757 749 750 754 761 764
841 838 834 830 826 822 819 815 811 808 805 804 802 800 799 798 794 791 791 791 791 791 791 791 793 796 800 800 802 804 795 792 783 783 783 781 776 774 763 754 749 751 753 755 760
839 836 831 828 824 820 816 812 807 804 802 800 800 799 800 801 790 790 790 791 792 791 792 792 792 793 797 800 802 796 794 788 784 781 779 779 771 773 755 752 750 751 747 750 754
836 834 831 826 822 817 813 808 804 800 798 797 798 798 800 793 789 790 791 791 791 791 792 792 792 793 795 799 796 797 797 784 783 779 777 778 777 774 755 752 750 748 748 750 752
837 834 829 824 819 814 809 804 801 799 798 797 797 797 796 789 789 789 789 790 790 790 791 792 792 793 795 796 797 800 798 797 780 780 775 778 784 762 759 757 753 750 751 751 750
836 832 828 822 817 811 807 802 800 799 798 798 799 798 793 790 789 789 788 789 789 790 791 792 793 798 798 803 805 802 809 807 794 782 784 781 780 757 757 757 757 753 750 749 748
834 831 826 822 816 810 805 800 800 799 798 799 799 800 789 793 790 788 788 789 789 791 792 794 797 801 804 801 822 816 812 805 808 786 782 782 776 765 763 760 757 753 751 748 745
835 830 825 821 814 812 804 801 804 802 800 801 801 799 794 792 789 788 788 789 790 793 805 803 805 811 807 807 806 809 813 813 795 788 790 784 782 768 763 759 759 756 752 749 744
833 829 824 820 816 814 810 812 822 823 812 800 800 799 795 795 795 788 788 793 796 808 805 806 811 804 803 805 809 810 810 803 792 790 791 784 779 772 764 765 764 759 753 750 744
832 828 824 820 816 816 816 819 819 818 817 801 796 795 793 794 794 791 788 792 800 808 808 811 805 802 804 800 807 807 806 802 802 790 791 789 783 780 764 759 755 751 750 746 743
831 829 824 821 820 819 818 818 815 815 814 802 795 793 794 793 795 789 789 792 800 808 809 808 801 804 803 803 798 804 795 800 801 802 809 800 810 784 777 765 756 755 751 749 744
831 829 825 824 823 821 820 816 815 816 830 798 796 791 792 794 792 792 789 790 804 805 806 809 804 802 802 796 795 796 793 799 803 805 807 804 804 788 777 777 772 761 756 753 748
830 828 826 824 822 820 817 815 815 822 835 805 795 797 797 794 794 793 792 790 795 802 805 803 798 799 793 792 793 792 795 801 808 806 816 818 813 797 796 794 777 769 762 758 751
829 827 825 823 821 818 816 816 822 823 806 814 807 798 801 807 801 799 804 807 812 819 820 807 801 794 793 795 792 793 799 818 824 823 826 819 813 807 795 787 785 779 773 766 759
826 824 822 820 818 818 817 818 828 819 815 805 807 805 812 810 811 808 811 817 812 814 819 822 822 802 793 799 802 806 803 819 844 836 823 813 814 817 796 785 782 778 773 765 762
824 821 820 819 817 817 818 825 822 820 813 813 809 814 816 814 812 813 820 823 817 814 823 823 820 800 797 795 799 807 812 815 828 839 832 814 804 802 791 788 783 782 778 774 770
825 821 820 818 819 820 820 830 821 815 811 810 820 820 823 822 818 817 823 821 822 816 814 818 825 806 800 796 796 800 810 818 818 835 838 815 817 819 811 808 799 792 789 784 776
826 821 821 820 821 821 823 824 821 810 809 811 818 822 826 827 824 826 832 824 823 817 814 818 822 814 806 814 815 809 813 826 826 832 831 831 815 820 822 818 812 805 799 792 785
827 822 823 823 826 837 825 825 820 811 807 809 814 818 824 828 828 829 831 830 824 821 822 824 825 824 825 819 817 816 824 826 827 833 834 834 823 822 823 819 814 808 804 797 792
825 826 825 824 826 828 827 821 817 813 813 812 818 818 822 831 835 832 831 826 824 823 830 825 830 832 831 823 818 823 823 827 832 835 829 830 819 822 823 820 816 812 807 801 796
828 825 826 827 831 826 825 821 818 813 813 814 820 819 825 833 833 835 833 829 827 828 832 828 836 835 839 832 830 829 823 826 829 834 828 825 820 816 824 822 819 815 810 804 798
828 824 827 826 825 826 825 823 819 819 814 815 822 822 826 836 836 838 835 831 829 830 828 830 836 837 831 831 829 826 823 823 828 823 834 819 825 822 824 823 822 818 813 807 802
824 822 828 825 827 825 828 822 819 822 819 822 823 828 826 831 831 836 835 836 836 829 832 837 838 838 833 826 832 834 823 823 822 824 826 823 820 819 820 821 818 816 813 810 806
825 824 820 832 828 824 822 820 818 817 824 821 821 826 830 832 830 831 832 834 835 838 838 840 839 842 841 839 833 831 825 825 827 824 821 824 816 818 821 821 819 817 815 812 807